Weather in Agadyr

Kazakhstan     48˚15′42″N   72˚51′15″E
temp.,
°C
wind,
m/s
gust,
m/s
humid.,
%
clouds,
%
prec.,
mm/h
press.,
hPa
HPBL,
m
28 november, sat
sat2800:00−7˚se51286100 0.0 1028287
03:00−5˚se61294100 0.6 1025327
06:00−4˚se91595100 2.4 1023439
09:00−4˚sse81396100 1.4 1020521
12:00−1˚ssw61289100 3.4 1021747
15:00−5˚sw10178595 0.1 1024814
18:00−7˚wsw11189197 0.4 10271120
21:00−8˚w121789100 0.6 1030950
29 november, sun
sun2900:00−10˚w111790100 1.1 1032831
03:00−12˚wnw101593100 0.4 1035715
06:00−13˚wnw91393100 1.1 1038635
09:00−13˚wnw71294100 0.5 1040507
12:00−12˚wnw71092100 0.8 1042528
15:00−13˚wnw71092100 0.3 1042495
18:00−14˚nw61094100 0.4 1044422
21:00−16˚nw5996100 0.1 1046259
30 november, mon
mon3000:00−18˚nw4799100 0.1 1047128
03:00−20˚nw33100100 0.0 104822
06:00−21˚nnw12100100 0.1 104920
09:00−22˚e1110068 0.0 104920
12:00−18˚ese129557 0.0 104985
15:00−17˚e11930 0.0 104821
18:00−20˚ene22950 0.0 104920
21:00−20˚e34960 0.0 104931
1 december, tue
tue100:00−21˚ese34920 0.0 104842
03:00−20˚se46960 0.0 104787
06:00−19˚ese589718 0.0 1046130
09:00−18˚ese6139561 0.0 1045244
12:00−11˚ese7158550 0.0 1044395
15:00−10˚e715810 0.0 1042356
18:00−13˚ese511780 0.0 1043182
21:00−13˚ese614790 0.0 1043258
2 december, wed
wed200:00−14˚ese614798 0.0 1043235
03:00−14˚ese6147643 0.0 1042222
06:00−14˚ese7147641 0.0 1042231
09:00−14˚ese7137671 0.0 1041218
12:00−10˚se7147376 0.0 1040310
15:00−10˚ese7147463 0.0 1038305
18:00−12˚se6137774 0.0 1037222
21:00−13˚se61379100 0.0 1037255